Location: Alphen
(52.1351°N, 4.6549°E)
Time: 02:04:12
(UTC+00:00)

Cosmos 1939 Rocket - Pass Details

Date: 27 January 2021
Orbit: 531 x 585 km, 97.4° (Epoch: 26 February)

Event Time Altitude Azimuth Distance (km) Brightness Sun altitude
Rises 06:36:30 0° 14° (NNE) 2,725 6.3 -8.2°
Reaches altitude 10° 06:38:40 10° 16° (NNE) 1,819 5.4 -7.8°
Maximum altitude 06:42:35 77° 103° (ESE) 559 3.0 -7.3°
Drops below altitude 10° 06:46:26 10° 190° (S) 1,783 5.6 -6.7°
Sets 06:48:32 0° 191° (SSW) 2,666 6.5 -6.4°
